Content
SEND FEEDBACK

Daily
Averages
Monthly
Summary
French Polynesia

PAPEETE, FRENCH POLYNESIA


Home > Oceania > French Polynesia
Elevation: 7 feet     Latitude: 17 33S     Longitude: 149 36W

WEATHER
 
SELECT A DAY
Number of Records: 208,134;   Date Range: 6/30/96 - 7/23/14
 
SHARE

PRINT THIS DATA

[ ← Previous Day ]
WEATHER ALMANAC - MAY 7, 2013
[ Next Day → ]
[ °C ]   °F
Weather ElementAverageHighLow
Temperature81.3 °F87.8 °F (3:30 pm)77 °F (1:00 am)
Dewpoint74 °F77 °F (2:00 am)73 °F (2:00 pm)
Humidity78.3 %94 % (1:00 am)59 % (2:00 pm)
Barometer29.89 in29.95 in (9:30 am)29.83 in (3:30 pm)
Wind Speed4.9 mph22.4 mph (2:00 am)
Weather ElementAverage
Visibility7.1 mi
Wind DirectionSE (138.4 °)

Weather ElementTotal
Precipitation---
Cooling Degree Days17.4 (Base 65)
Growing Degree Days32.4 (Base 50)
Averaged from 55 records on May 7, 2013
WEATHER CONDITIONS BREAKOUT
WIND DIRECTION BREAKOUT
WEATHER BY HOUR - MAY 7, 2013
[ °C ]   °F
Local TimeTemperatureDewpointHumidityBarometerVisibilityWind DirectionWind SpeedGust SpeedPrecipitationEventsConditions
12:30 AM78.8 °F75.2 °F89 %29.89 in5.0 miENE (70°)2.3 mphRainLight Rain
1:00 AM77.0 °F75.2 °F94 %29.86 in3.1 miVariable2.3 mphRainRain
1:30 AM77.0 °F75.2 °F94 %29.86 in5.0 miEast (80°)5.8 mphRainLight Rain
2:00 AM78.0 °F76.0 °F92 %29.87 in5.0 miWest (260°)22.4 mphRainLight Rain
2:00 AM78.8 °F77.0 °F94 %29.86 in5.0 miWest (260°)11.5 mphRainLight Rain
2:30 AM77.0 °F75.2 °F94 %29.86 in3.1 miVariable2.3 mphRainLight Rain
3:00 AM77.0 °F75.2 °F94 %29.86 in5.0 miWest (280°)8.1 mphRainLight Rain
3:30 AM77.0 °F73.4 °F89 %29.86 in3.1 miWSW (250°)3.5 mphRainLight Rain
4:00 AM77.0 °F73.4 °F89 %29.86 in4.3 miSSE (150°)5.8 mphRainLight Rain
4:30 AM77.0 °F73.4 °F89 %29.86 in6.2 miSouth (170°)6.9 mphMostly Cloudy
5:00 AM77.0 °F74.0 °F87 %29.87 in37.0 miESE (120°)2.3 mphClear
5:00 AM77.0 °F73.4 °F89 %29.86 in6.2 miVariable2.3 mphMostly Cloudy
5:30 AM77.0 °F73.4 °F89 %29.86 in6.2 miENE (60°)4.6 mphMostly Cloudy
6:00 AM77.0 °F73.4 °F89 %29.86 in6.2 miVariable3.5 mphMostly Cloudy
6:30 AM77.0 °F73.4 °F89 %29.89 in6.2 miVariable2.3 mphMostly Cloudy
7:00 AM77.0 °F75.2 °F94 %29.89 in6.2 miENE (60°)3.5 mphMostly Cloudy
7:30 AM78.8 °F75.2 °F89 %29.92 in6.2 miVariable3.5 mphMostly Cloudy
8:00 AM80.0 °F76.0 °F82 %29.94 in12.0 miEast (100°)6.7 mphPartly Cloudy
8:00 AM80.6 °F75.2 °F84 %29.92 in6.2 miEast (100°)3.5 mphMostly Cloudy
8:30 AM82.4 °F75.2 °F79 %29.92 in6.2 miVariable2.3 mphScattered Clouds
9:00 AM84.2 °F75.2 °F74 %29.92 in6.2 miVariable2.3 mphScattered Clouds
9:30 AM84.2 °F75.2 °F74 %29.95 in6.2 miNW (310°)3.5 mphScattered Clouds
10:00 AM86.0 °F75.2 °F70 %29.92 in6.2 miWest (260°)5.8 mphScattered Clouds
10:30 AM86.0 °F75.2 °F70 %29.92 in6.2 miWSW (250°)2.3 mphMostly Cloudy
11:00 AM86.0 °F74.0 °F61 %29.92 in12.0 miSW (230°)6.7 mphMostly Cloudy
11:00 AM86.0 °F75.2 °F70 %29.92 in6.2 miSW (230°)3.5 mphMostly Cloudy
11:30 AM86.0 °F73.4 °F66 %29.89 in6.2 miWSW (240°)3.5 mphMostly Cloudy
12:00 PM86.0 °F73.4 °F66 %29.89 in6.2 miVariable1.2 mphMostly Cloudy
12:30 PM86.0 °F73.4 °F66 %29.89 in6.2 miVariable2.3 mphMostly Cloudy
1:00 PM86.0 °F73.4 °F66 %29.86 in6.2 miSW (230°)6.9 mphMostly Cloudy
1:30 PM86.0 °F73.4 °F66 %29.86 in6.2 miSW (220°)6.9 mphMostly Cloudy
2:00 PM85.0 °F73.0 °F59 %29.87 in12.0 miSW (230°)5.8 mphMostly Cloudy
2:00 PM86.0 °F73.4 °F66 %29.86 in6.2 miSW (230°)5.8 mphMostly Cloudy
2:30 PM86.0 °F73.4 °F66 %29.86 in6.2 miSW (220°)5.8 mphMostly Cloudy
3:00 PM86.0 °F73.4 °F66 %29.86 in6.2 miSW (230°)9.2 mphMostly Cloudy
3:30 PM87.8 °F73.4 °F62 %29.83 in6.2 miWSW (240°)6.9 mphScattered Clouds
4:00 PM87.8 °F73.4 °F62 %29.86 in6.2 miWSW (240°)5.8 mphPartly Cloudy
4:30 PM86.0 °F73.4 °F66 %29.86 in6.2 miWest (260°)8.1 mphPartly Cloudy
5:00 PM85.0 °F74.0 °F62 %29.87 in12.0 miWest (260°)6.9 mphScattered Clouds
5:00 PM84.2 °F73.4 °F70 %29.86 in6.2 miWest (260°)6.9 mphPartly Cloudy
5:30 PM84.2 °F73.4 °F70 %29.86 in6.2 miWSW (250°)5.8 mphPartly Cloudy
6:00 PM82.4 °F73.4 °F74 %29.89 in6.2 miWest (270°)3.5 mphPartly Cloudy
6:30 PM82.4 °F73.4 °F74 %29.89 in6.2 miNNW (340°)4.6 mphPartly Cloudy
7:00 PM80.6 °F73.4 °F79 %29.89 in6.2 miEast (90°)3.5 mphPartly Cloudy
7:30 PM80.6 °F73.4 °F79 %29.92 in6.2 miEast (100°)3.5 mphPartly Cloudy
8:00 PM80.0 °F73.0 °F74 %29.93 in12.0 miEast (80°)6.7 mphScattered Clouds
8:00 PM78.8 °F73.4 °F83 %29.92 in6.2 miEast (80°)3.5 mphPartly Cloudy
8:42 PM78.8 °F73.4 °F83 %29.95 in6.2 miVariable2.3 mphPartly Cloudy
9:00 PM78.8 °F73.4 °F83 %29.95 in6.2 miVariable2.3 mphPartly Cloudy
9:30 PM78.8 °F73.4 °F83 %29.95 in6.2 miVariable3.5 mphPartly Cloudy
10:00 PM78.8 °F73.4 °F83 %29.95 in6.2 miESE (110°)2.3 mphPartly Cloudy
10:30 PM78.8 °F73.4 °F83 %29.95 in6.2 miENE (70°)3.5 mphPartly Cloudy
11:00 PM79.0 °F73.0 °F76 %29.95 in12.0 miENE (60°)3.5 mphScattered Clouds
11:00 PM78.8 °F73.4 °F83 %29.95 in6.2 miENE (60°)3.5 mphPartly Cloudy
11:30 PM78.8 °F73.4 °F83 %29.95 in6.2 miVariable3.5 mphPartly Cloudy
Hourly data recorded from NTAA, located miles away from Papeete, French Polynesia







STORIES FROM OUR PARTNERS